Temp
18 18 18 19 20 20 21 22 22 23 23 24 24 24 25 26 25 21 23 29 28 27 23 24 25 25 25 27 28 28 31 33 34 34 35 35 34 34 33 32 31 31 31 30 26
17 17 18 18 19 20 20 21 22 22 23 24 24 24 25 26 23 22 30 29 28 26 24 26 26 26 27 28 29 29 31 33 34 35 35 36 35 35 32 32 31 31 29 27 25
16 17 17 18 19 19 20 21 22 23 23 24 24 24 25 26 25 32 30 30 27 27 26 27 27 28 28 29 29 30 31 33 34 35 35 35 35 35 34 32 34 32 30 27 26
17 16 17 18 19 19 20 20 21 22 23 24 25 25 25 25 31 30 30 31 29 27 27 27 28 28 29 29 30 30 31 33 34 34 34 35 36 34 35 37 35 34 31 28 27
16 16 16 18 18 19 20 21 22 23 23 25 25 25 25 27 29 30 29 29 25 26 29 29 28 29 30 30 31 30 32 34 34 34 34 34 35 35 34 36 34 32 29 28 28
14 15 16 17 17 18 20 21 22 22 24 25 25 24 24 26 29 29 28 26 25 25 28 29 30 30 31 31 31 33 33 33 34 35 34 35 35 33 36 36 34 30 29 30 29
14 15 16 17 18 19 20 22 21 23 23 25 24 23 23 28 27 27 27 27 27 27 28 28 29 30 30 30 32 32 31 34 34 35 35 35 36 35 36 34 34 31 30 30 29
15 16 16 17 17 18 20 22 23 22 22 24 21 21 26 26 27 27 28 27 27 26 27 28 28 30 30 31 31 31 31 32 35 34 35 34 35 36 36 34 33 33 31 30 29
13 14 14 15 17 18 21 21 23 21 22 20 19 21 27 27 27 27 27 28 27 26 25 28 28 30 29 30 30 30 31 32 33 33 34 34 34 36 35 35 34 33 31 31 29
12 13 15 16 17 19 22 22 21 21 20 20 19 23 27 29 27 27 27 27 28 28 27 28 29 29 29 30 30 31 31 31 31 34 33 34 34 35 35 34 35 34 31 32 30
12 13 14 16 17 20 22 21 22 23 20 23 24 24 26 25 24 26 26 27 28 29 29 28 28 28 30 31 32 32 30 31 31 33 32 33 33 34 35 35 35 33 32 31 32
12 12 14 16 17 20 20 19 17 17 20 21 20 21 22 23 26 27 27 28 28 29 28 27 28 29 30 31 30 30 30 30 31 32 31 33 33 34 34 34 35 34 33 31 32
12 12 13 16 18 18 17 16 15 15 20 23 24 24 26 25 27 28 27 27 28 28 29 29 30 29 29 30 29 30 30 30 31 32 32 31 32 33 35 34 34 35 34 33 32
12 12 13 16 17 15 17 16 16 15 24 27 27 28 27 26 27 28 27 29 27 28 28 29 30 29 29 29 30 30 31 31 31 31 31 31 31 33 34 33 34 35 34 33 32
12 12 13 14 13 14 17 17 17 17 26 27 27 27 27 28 28 29 27 28 28 28 28 29 29 29 29 30 30 30 31 31 31 31 30 32 30 33 32 33 36 36 36 36 35
13 14 13 13 12 17 17 17 17 24 25 25 26 26 26 27 28 28 28 28 28 27 28 28 29 29 31 31 31 32 31 29 27 30 29 32 31 32 33 34 36 36 36 35 36
14 15 15 13 17 16 17 19 24 25 24 24 25 25 25 26 28 27 27 28 28 27 27 28 29 30 30 30 30 30 30 29 29 29 30 30 29 32 34 35 34 36 36 35 35
16 17 17 16 16 17 17 24 24 23 23 24 24 25 26 26 28 27 28 28 28 27 27 28 28 30 31 31 30 30 31 29 27 29 30 28 30 33 34 34 33 32 33 33 33
16 17 17 17 18 17 22 24 23 23 23 23 24 25 26 26 25 27 27 27 27 27 26 28 29 30 30 32 31 28 29 31 27 27 28 31 32 32 33 33 33 32 31 31 31
14 15 16 17 17 17 23 21 22 22 23 23 23 24 24 25 26 26 27 27 27 27 26 27 27 30 31 31 30 30 31 30 29 26 26 30 30 31 33 34 31 30 28 27 28
14 19 17 17 17 21 22 21 21 23 22 23 23 23 24 24 25 26 26 27 27 27 27 27 26 29 28 30 30 29 29 29 30 28 29 28 30 32 30 29 28 28 26 26 27
13 21 17 18 21 16 21 20 20 23 23 23 23 23 23 24 25 25 26 26 27 26 26 26 27 27 29 29 28 29 29 29 29 26 29 29 31 30 29 28 27 27 26 25 26
14 15 17 17 21 20 19 21 21 22 23 23 23 24 24 24 24 24 25 27 26 26 26 27 26 27 28 29 29 28 27 28 27 27 30 30 31 29 27 27 25 25 26 25 23
14 19 18 17 15 19 20 21 21 22 22 22 23 23 23 24 23 24 25 25 25 26 23 24 25 26 27 27 27 26 26 26 26 26 30 31 31 30 26 24 23 22 24 25 25
13 16 14 19 18 18 18 19 20 21 21 22 22 23 22 22 23 23 24 25 26 25 25 25 25 25 26 26 27 26 27 26 25 26 26 31 28 24 22 20 21 21 22 22 24
15 15 13 15 14 16 16 19 20 20 20 22 21 22 22 22 23 22 23 23 24 25 24 24 25 25 25 27 27 27 26 25 25 25 26 27 26 21 20 21 21 21 22 21 21
9 9 14 13 15 17 19 18 19 18 20 21 20 20 22 23 21 21 22 22 22 21 22 22 24 24 25 26 27 26 25 24 24 24 22 24 23 20 20 22 22 22 22 23 23
Height
820 816 813 810 807 804 800 797 794 791 788 785 783 781 777 774 769 767 764 759 758 761 767 770 775 778 780 779 777 775 783 784 776 775 767 751 757 749 748 755 755 756 759 761 765
821 816 813 810 806 803 799 795 792 788 785 782 779 777 775 772 768 764 757 756 757 760 767 769 773 777 779 776 774 779 784 774 758 755 758 749 751 747 754 755 756 755 758 764 769
821 817 814 809 805 801 797 793 789 785 781 778 776 774 772 770 767 756 753 754 755 760 764 770 773 775 779 774 772 771 776 760 755 749 745 747 745 739 747 755 743 748 753 761 769
819 816 811 807 803 799 795 791 786 782 777 775 773 772 770 769 778 753 755 755 756 761 764 767 770 774 777 779 769 779 761 757 750 746 748 749 737 743 738 727 731 733 742 754 761
819 815 810 805 800 795 790 786 781 778 773 771 769 769 768 768 760 752 753 754 758 761 763 764 769 770 775 771 768 773 759 752 748 747 746 743 744 740 735 726 731 735 744 750 756
819 814 809 803 797 792 786 781 776 773 768 765 764 766 768 773 753 752 752 754 758 761 762 763 763 763 767 768 769 754 756 752 747 746 745 746 740 739 727 722 731 738 739 740 745
816 811 806 800 795 788 782 776 772 767 764 761 760 763 766 757 752 753 754 757 758 760 761 762 762 764 763 767 757 757 766 752 746 744 745 738 745 742 723 725 728 732 730 736 741
813 808 803 798 793 785 778 772 766 764 763 760 759 762 759 750 751 751 752 753 754 756 758 758 760 761 764 758 759 765 765 772 742 745 740 745 756 729 721 727 731 727 729 732 737
813 809 803 797 790 782 774 768 763 763 763 762 763 763 757 749 749 748 748 750 752 753 753 755 756 758 761 769 775 770 778 770 760 745 746 748 754 731 726 725 726 724 725 727 735
812 807 800 794 787 778 770 764 764 763 763 763 764 766 750 749 747 747 747 747 748 749 753 754 756 761 763 767 782 772 773 768 771 748 748 750 749 731 725 728 722 719 719 719 724
810 804 798 791 785 779 770 765 768 766 764 765 764 761 750 748 746 744 742 743 746 749 758 755 763 765 759 753 750 753 765 768 763 749 754 747 745 734 718 717 715 714 713 714 709
807 803 796 790 785 780 776 778 787 790 778 763 763 761 753 751 750 741 742 745 747 752 751 760 760 752 749 747 756 756 760 762 757 748 753 745 742 726 717 716 710 708 707 706 711
806 802 796 788 783 781 781 784 785 785 783 764 758 756 750 752 748 742 740 741 747 750 748 753 745 742 748 752 759 753 757 758 759 747 742 748 745 731 713 707 703 697 695 699 702
805 801 795 787 785 784 784 785 783 782 779 767 756 751 748 747 750 736 737 739 745 749 748 747 732 741 744 748 746 754 742 744 752 757 765 746 763 735 717 715 704 695 693 693 696
803 800 794 790 788 786 786 783 781 783 792 766 757 749 747 750 745 736 735 738 746 744 747 741 739 741 744 738 733 741 734 741 743 751 758 745 760 733 721 717 700 689 685 682 682
801 797 791 788 786 784 782 781 783 785 792 775 763 762 756 749 746 738 736 734 736 743 742 741 730 732 728 724 727 722 737 748 755 750 768 743 753 738 723 710 694 685 682 680 676
798 793 787 786 785 782 780 780 786 789 781 783 776 767 769 762 750 748 749 747 752 760 754 741 732 725 724 734 727 733 744 765 770 767 764 742 753 734 702 693 693 684 680 679 678
794 788 785 784 783 781 780 780 795 792 788 776 774 769 770 763 755 754 751 754 746 751 753 752 750 728 716 722 729 732 733 758 780 769 755 754 747 721 693 687 685 685 680 677 676
791 787 786 784 782 781 780 787 791 789 783 782 775 775 772 765 767 759 758 757 751 748 762 753 743 718 714 708 716 739 743 726 762 761 767 740 723 705 692 687 685 687 683 678 671
792 788 787 784 783 782 781 795 789 783 780 781 788 780 782 773 770 764 761 752 753 744 746 744 754 722 711 708 710 720 718 742 745 779 785 746 735 729 702 692 688 688 689 680 674
794 787 787 785 784 780 787 791 787 777 779 783 784 784 779 779 772 768 766 752 748 745 741 742 749 731 724 724 725 727 730 730 727 749 757 757 733 700 704 699 699 691 691 685 678
796 788 787 784 785 799 790 791 787 778 775 778 778 779 779 776 773 770 768 760 747 749 750 743 745 745 729 716 715 716 727 724 739 759 737 742 721 694 696 695 695 692 689 687 682
799 796 787 785 788 790 791 787 785 780 777 776 776 774 772 774 778 769 763 750 748 749 750 744 746 749 737 725 717 728 730 725 729 734 726 730 715 695 698 697 699 696 690 689 692
801 791 789 790 796 790 791 788 786 778 779 777 776 771 774 773 773 771 764 753 748 746 748 746 750 749 750 743 733 740 733 729 733 743 716 709 702 697 706 707 707 704 695 690 687
805 800 804 791 795 794 795 792 788 786 779 776 776 776 780 780 774 772 764 756 746 745 744 746 755 748 737 732 732 732 729 729 735 731 734 704 710 717 717 718 717 707 703 699 695
803 801 805 801 804 798 798 791 788 787 787 780 781 777 776 776 773 775 769 765 758 744 749 748 751 747 740 728 729 729 726 727 728 723 721 716 716 722 721 719 717 711 707 706 707
807 807 804 804 800 796 789 790 788 790 782 779 781 781 776 770 770 765 762 758 756 759 757 758 750 747 746 732 728 734 729 729 727 725 731 730 725 730 726 721 719 714 709 707 708
Wind_Speed
25 26 25 26 26 26 26 26 25 24 23 22 21 20 21 22 24 11 7 5 8 19 26 23 14 15 14 5 6 1 3 2 3 4 7 4 4 4 3 7 7 11 4 2 23
26 27 27 27 27 28 28 28 27 26 25 23 21 19 20 21 15 10 2 5 7 27 23 23 14 17 5 5 4 4 3 4 3 7 8 14 11 10 8 12 9 7 5 13 23
27 26 28 28 29 29 30 29 30 28 26 23 20 19 18 16 5 3 7 5 16 27 19 14 17 7 4 3 6 6 5 6 8 12 13 12 15 5 11 11 13 16 13 17 19
28 29 30 30 30 30 30 31 31 28 25 22 19 17 15 5 5 3 3 3 16 20 19 15 12 7 5 7 6 6 12 13 6 7 5 10 12 4 15 21 10 13 20 22 22
29 30 31 32 33 34 32 34 32 25 26 22 16 11 5 2 8 7 5 9 26 15 16 10 10 6 7 6 8 12 14 11 13 12 9 10 12 10 15 13 2 11 19 22 22
29 30 31 33 35 35 33 36 25 26 23 20 16 6 3 6 4 4 1 15 13 8 7 7 7 8 6 9 10 8 11 17 11 12 8 8 4 5 4 9 10 15 20 24 26
30 31 32 33 35 35 37 26 29 21 15 15 10 7 3 12 2 6 7 7 4 11 6 9 11 6 0 6 6 9 13 16 15 9 11 6 8 6 7 4 12 17 21 21 24
30 31 33 34 35 36 31 30 25 9 9 7 6 6 6 3 3 12 15 11 11 14 16 15 12 9 6 7 6 4 4 12 12 4 1 4 17 9 3 7 10 18 17 18 25
29 31 34 36 36 38 30 28 11 1 5 5 3 1 5 3 4 4 7 6 4 4 7 2 6 6 5 7 8 6 13 13 13 1 3 3 9 15 7 9 13 16 17 16 19
29 32 34 36 36 30 28 11 4 3 3 2 1 2 5 2 2 4 8 6 3 4 4 6 6 8 7 9 13 12 13 11 12 8 5 12 15 17 14 13 16 14 15 19 19
29 33 35 36 38 19 25 4 4 0 5 2 5 5 8 10 11 4 5 10 4 2 5 7 8 15 18 18 19 16 12 12 5 9 11 17 15 14 20 17 17 13 16 20 24
29 32 35 34 32 16 10 5 5 3 7 2 5 7 10 4 4 4 6 6 8 13 8 6 16 11 16 19 15 15 16 13 9 11 6 12 20 19 16 11 13 11 15 20 17
29 31 34 34 17 14 6 9 6 1 3 6 4 4 6 3 5 4 8 4 7 11 14 16 10 11 16 17 15 18 19 12 11 8 9 11 11 8 13 13 11 11 11 13 19
28 29 34 38 4 16 3 1 18 7 2 7 3 1 1 2 5 5 8 3 3 7 10 11 13 15 15 17 16 18 15 16 9 8 11 2 13 11 13 10 10 14 8 13 16
27 29 34 30 14 4 1 13 6 2 2 11 5 2 13 2 9 0 2 3 6 5 5 7 7 14 16 20 17 16 7 10 10 9 4 13 6 9 8 12 12 10 11 12 15
28 32 36 12 9 5 9 10 4 3 1 4 5 8 10 3 3 6 1 2 0 4 9 10 5 5 9 11 17 14 8 2 2 4 7 14 8 7 7 7 6 9 10 13 15
30 32 21 8 2 9 12 1 2 1 2 6 5 9 8 5 8 8 7 3 3 5 3 6 15 13 10 12 6 10 8 5 6 5 9 4 6 7 16 15 16 14 10 10 12
30 25 9 5 10 9 3 1 1 1 2 3 5 8 3 7 3 9 8 7 5 2 5 4 4 9 9 12 7 12 12 6 5 7 11 3 7 3 9 14 12 12 13 15 15
27 12 3 11 5 5 1 2 2 1 2 6 6 2 3 3 4 6 5 4 5 10 6 4 4 3 8 3 8 3 4 10 3 3 5 5 6 10 7 11 6 9 14 16 16
20 8 5 4 6 3 1 2 2 3 2 1 2 2 3 4 5 6 6 3 8 11 5 1 6 5 2 4 5 4 7 4 4 6 13 13 16 11 16 15 16 15 14 13 12
6 2 4 8 6 2 2 0 3 4 5 4 2 3 4 3 4 3 4 5 10 15 9 4 3 5 3 3 6 4 4 2 4 1 12 14 13 4 9 10 12 11 11 11 8
4 2 4 8 1 1 1 1 3 3 0 3 3 4 3 3 4 3 3 3 12 13 8 3 3 5 6 4 5 1 4 2 6 6 8 8 17 1 6 6 8 10 10 8 5
3 3 4 3 2 2 1 2 3 3 3 2 2 1 0 2 3 2 4 6 8 11 8 8 2 6 6 4 3 3 5 6 8 6 15 12 13 4 6 7 8 9 9 7 5
2 1 1 3 2 2 0 1 3 2 3 3 3 2 3 2 2 4 6 4 12 9 3 3 2 4 7 5 4 5 6 6 8 7 12 13 14 4 7 8 8 9 10 9 8
2 1 2 1 2 1 1 1 2 3 2 3 2 3 3 3 4 3 5 11 9 3 4 6 5 4 10 13 9 7 7 1 3 9 12 16 10 2 4 6 7 7 9 11 9
1 1 1 0 2 2 3 4 4 2 2 1 3 10 5 5 3 8 8 8 8 5 5 3 5 7 14 8 9 12 1 5 6 5 7 12 6 3 6 3 6 9 10 11 10
1 0 2 1 1 3 2 3 5 2 4 6 5 8 8 6 8 17 16 18 17 12 7 4 4 5 12 5 12 7 2 2 3 3 6 7 5 4 5 6 9 10 9 11 11
Wind_Direction
15 13 9 7 3 359 355 352 348 344 339 337 337 339 333 329 323 306 249 238 193 170 151 143 156 155 169 206 222 236 253 286 350 321 310 305 260 179 195 183 178 187 239 308 158
11 7 5 2 359 356 353 349 345 340 335 331 330 330 331 331 315 259 288 223 178 166 152 157 159 162 188 206 196 224 260 224 235 287 287 301 284 288 190 198 209 190 126 136 157
3 2 359 357 355 352 347 344 340 335 329 323 322 326 331 332 289 207 39 172 174 169 160 161 149 163 223 212 194 186 230 242 252 269 295 296 299 253 210 221 208 211 173 162 172
357 355 354 351 350 347 343 340 334 328 324 318 319 324 326 326 284 140 50 159 168 166 154 150 162 181 210 220 217 252 243 248 265 275 279 295 303 262 209 234 190 200 175 166 178
353 351 350 347 346 342 338 335 329 326 318 308 302 304 326 264 251 288 332 171 169 167 175 170 172 192 217 209 220 241 266 264 249 265 264 273 269 280 242 246 163 154 161 176 188
350 349 347 345 343 339 334 332 330 323 312 299 289 263 155 255 266 298 78 156 174 172 181 178 202 220 272 249 247 248 268 269 276 283 275 262 271 190 288 200 192 157 178 186 188
347 347 344 343 342 337 333 331 326 317 318 313 291 172 181 244 115 127 126 137 203 199 223 223 240 250 82 263 285 267 276 276 264 268 269 244 251 235 263 199 197 188 202 192 194
344 343 342 341 341 337 333 328 319 316 4 354 141 146 245 282 292 259 262 260 250 232 249 265 241 240 229 270 273 297 257 264 275 214 225 271 271 254 235 200 231 223 213 199 197
341 340 339 340 340 338 334 332 326 332 6 43 76 212 266 267 277 161 172 160 257 243 220 214 179 218 177 224 250 223 252 245 268 114 279 216 290 300 317 287 277 242 215 208 197
340 340 339 341 343 344 342 344 19 14 351 342 73 245 246 321 241 263 255 238 191 142 134 179 201 205 193 202 232 237 234 245 258 275 267 274 280 291 293 279 284 249 212 209 202
339 341 340 341 344 350 352 10 3 35 34 345 312 280 296 310 293 239 243 142 154 184 229 190 209 218 213 218 239 261 249 255 237 269 287 282 280 286 295 299 284 247 214 210 217
339 341 340 340 342 358 20 64 79 313 312 288 256 266 274 286 302 273 182 199 186 223 202 202 239 234 229 228 231 234 244 252 264 250 240 288 293 290 290 275 286 260 216 216 211
337 339 339 339 346 3 56 112 1 323 263 297 232 263 288 185 306 280 184 190 223 229 211 235 260 217 218 227 230 237 243 241 249 276 263 283 276 275 285 288 285 262 240 219 207
333 337 338 338 357 345 31 30 329 179 350 353 352 43 265 242 261 233 212 228 207 246 224 242 230 216 219 229 227 246 228 248 246 257 274 240 291 292 289 291 276 282 241 224 214
331 336 334 336 300 295 259 328 339 180 151 336 322 320 326 298 321 319 202 170 253 238 203 235 210 210 224 227 219 245 228 227 228 238 265 267 263 287 282 282 273 253 254 257 223
333 334 329 330 297 286 322 334 148 252 105 349 328 344 352 343 328 309 305 201 296 272 235 271 294 260 238 236 223 236 219 134 119 209 246 265 240 274 292 243 245 239 243 251 255
332 331 321 300 293 316 335 213 267 309 331 360 334 335 330 315 337 7 355 27 321 319 321 282 244 246 257 269 228 206 213 232 221 192 250 171 198 263 273 266 253 258 251 265 274
333 334 336 345 317 304 331 183 209 35 334 330 316 320 330 360 329 337 6 30 49 279 289 294 284 196 194 223 223 199 202 212 273 253 261 153 245 244 268 295 282 283 284 280 260
335 344 25 342 13 354 267 93 108 196 305 321 317 355 344 342 339 340 1 353 358 360 341 308 271 260 233 179 189 136 165 220 85 339 267 272 268 273 249 286 310 318 301 286 289
332 334 347 355 350 319 80 120 238 223 305 309 307 344 317 327 331 335 346 45 358 357 333 328 285 253 305 190 151 230 160 234 186 194 255 274 275 274 294 315 334 343 320 322 316
336 294 11 6 337 41 84 235 283 262 228 197 221 288 268 290 295 304 330 314 7 340 334 328 260 303 217 211 301 191 202 204 206 281 276 263 272 238 289 320 320 335 322 316 313
342 273 336 345 25 24 96 282 314 300 348 243 244 247 251 293 290 289 312 299 348 332 329 358 296 288 294 326 344 348 23 325 237 201 221 263 259 163 325 0 1 352 345 328 315
354 297 346 353 175 118 313 280 266 303 323 334 274 282 259 284 295 270 294 304 334 343 350 341 279 299 300 157 61 11 360 354 321 256 226 233 262 123 28 50 30 10 5 7 8
314 286 24 59 12 130 112 292 311 278 267 318 280 331 321 253 215 299 304 303 328 316 343 294 280 277 283 282 305 298 337 18 359 290 252 233 256 180 19 11 3 9 12 31 52
7 53 10 118 131 95 252 288 285 314 337 350 157 352 279 273 299 258 297 304 302 306 327 356 281 275 284 262 268 275 266 179 302 291 270 270 228 58 38 41 354 15 29 40 51
326 266 131 32 301 219 189 211 211 305 275 291 338 330 293 233 271 296 302 289 288 289 333 347 268 290 283 260 271 281 278 272 324 360 329 312 245 62 78 38 62 54 48 49 57
137 133 272 106 184 219 208 186 166 338 228 258 338 322 285 283 311 286 276 265 263 285 294 293 278 271 278 287 306 256 274 213 262 353 356 290 8 149 117 119 71 65 58 61 56